When you browse on this site, cookies collect data to enhance your experience and personalize the content and advertising you see.
Visit our Privacy Policy to learn more. By continuing to use the site, you agree to this use of cookies and data.

Stündliche Wetter Kamloops

Heute, 13 August, Donnerstag

Zeit Temperatur Niederschläge Wind Luftdruck Luftfeuchtigkeit
00:00 +11°C° 0 mm 1 m/S 704 mmHg 77%
01:00 +10°C° 0 mm 1 m/S 704 mmHg 80%
02:00 +10°C° 0 mm 1 m/S 704 mmHg 82%
03:00 +9°C° 0 mm 1 m/S 704 mmHg 84%
04:00 +9°C° 0 mm 1 m/S 705 mmHg 87%
05:00 +10°C° 0 mm 1 m/S 705 mmHg 81%
06:00 +11°C° 0 mm 1 m/S 705 mmHg 76%
07:00 +13°C° 0 mm 1 m/S 705 mmHg 71%
08:00 +15°C° 0 mm 1 m/S 705 mmHg 63%
09:00 +18°C° 0 mm 1 m/S 705 mmHg 56%
10:00 +20°C° 0 mm 1 m/S 705 mmHg 48%
11:00 +21°C° 0 mm 1 m/S 705 mmHg 45%
12:00 +22°C° 0 mm 1 m/S 705 mmHg 42%
13:00 +24°C° 0 mm 1 m/S 705 mmHg 39%
14:00 +24°C° 0 mm 1 m/S 705 mmHg 38%
15:00 +23°C° 0 mm 1 m/S 705 mmHg 37%
16:00 +23°C° 0 mm 1 m/S 705 mmHg 36%
17:00 +21°C° 0 mm 1 m/S 705 mmHg 43%
18:00 +18°C° 0 mm 0 m/S 705 mmHg 49%
19:00 +16°C° 0 mm 0 m/S 705 mmHg 56%
20:00 +14°C° 0 mm 0 m/S 706 mmHg 59%
21:00 +14°C° 0 mm 1 m/S 706 mmHg 61%
22:00 +13°C° 0 mm 1 m/S 706 mmHg 64%
23:00 +12°C° 0 mm 1 m/S 707 mmHg 68%

Morgen, 14 August, Freitag

Zeit Temperatur Niederschläge Wind Luftdruck Luftfeuchtigkeit
00:00 +12°C° 0 mm 1 m/S 707 mmHg 71%
01:00 +11°C° 0 mm 1 m/S 707 mmHg 75%
02:00 +10°C° 0 mm 1 m/S 707 mmHg 77%
03:00 +10°C° 0 mm 1 m/S 707 mmHg 79%
04:00 +10°C° 0 mm 1 m/S 707 mmHg 81%
05:00 +11°C° 0 mm 1 m/S 707 mmHg 75%
06:00 +12°C° 0 mm 1 m/S 708 mmHg 70%
07:00 +13°C° 0 mm 0 m/S 708 mmHg 64%
08:00 +15°C° 0 mm 0 m/S 708 mmHg 56%
09:00 +18°C° 0 mm 0 m/S 709 mmHg 49%
10:00 +21°C° 0 mm 0 m/S 709 mmHg 41%
11:00 +22°C° 0 mm 0 m/S 709 mmHg 38%
12:00 +26°C° 0 mm 1 m/S 709 mmHg 35%
13:00 +27°C° 0 mm 1 m/S 708 mmHg 31%
14:00 +25°C° 0 mm 0 m/S 708 mmHg 31%
15:00 +25°C° 0 mm 0 m/S 708 mmHg 32%
16:00 +25°C° 0 mm 0 m/S 708 mmHg 32%
17:00 +23°C° 0 mm 0 m/S 707 mmHg 39%
18:00 +21°C° 0 mm 0 m/S 707 mmHg 46%
19:00 +18°C° 0 mm 0 m/S 707 mmHg 53%
20:00 +17°C° 0 mm 0 m/S 707 mmHg 56%
21:00 +18°C° 0 mm 1 m/S 707 mmHg 58%
22:00 +16°C° 0 mm 1 m/S 707 mmHg 60%
23:00 +16°C° 0 mm 1 m/S 707 mmHg 62%

übermorgen, 15 August, Samstag

Zeit Temperatur Niederschläge Wind Luftdruck Luftfeuchtigkeit
00:00 +15°C° 0 mm 1 m/S 707 mmHg 64%
01:00 +14°C° 0 mm 1 m/S 708 mmHg 66%
02:00 +13°C° 0 mm 0 m/S 708 mmHg 69%
03:00 +12°C° 0 mm 0 m/S 707 mmHg 71%
04:00 +12°C° 0 mm 0 m/S 707 mmHg 73%
05:00 +13°C° 0 mm 0 m/S 708 mmHg 69%
06:00 +15°C° 0 mm 0 m/S 708 mmHg 64%
07:00 +17°C° 0 mm 0 m/S 708 mmHg 59%
08:00 +19°C° 0 mm 0 m/S 708 mmHg 52%
09:00 +22°C° 0 mm 0 m/S 708 mmHg 46%
10:00 +26°C° 0 mm 1 m/S 709 mmHg 39%
11:00 +28°C° 0 mm 1 m/S 708 mmHg 36%
12:00 +29°C° 0 mm 1 m/S 708 mmHg 32%
13:00 +31°C° 0 mm 1 m/S 708 mmHg 29%
14:00 +31°C° 0 mm 1 m/S 708 mmHg 29%
15:00 +31°C° 0 mm 1 m/S 708 mmHg 29%
16:00 +31°C° 0 mm 1 m/S 707 mmHg 29%
17:00 +28°C° 0 mm 1 m/S 707 mmHg 36%
18:00 +26°C° 0 mm 1 m/S 707 mmHg 43%
19:00 +23°C° 0 mm 1 m/S 706 mmHg 51%
20:00 +22°C° 0 mm 1 m/S 707 mmHg 53%
21:00 +21°C° 0 mm 1 m/S 707 mmHg 55%
22:00 +18°C° 0 mm 0 m/S 707 mmHg 57%
23:00 +19°C° 0 mm 1 m/S 707 mmHg 58%

16 August, Sonntag

Zeit Temperatur Niederschläge Wind Luftdruck Luftfeuchtigkeit
00:00 +18°C° 0 mm 1 m/S 707 mmHg 60%
01:00 +18°C° 0 mm 1 m/S 707 mmHg 62%
02:00 +16°C° 0 mm 1 m/S 707 mmHg 64%
03:00 +16°C° 0 mm 1 m/S 707 mmHg 65%
04:00 +15°C° 0 mm 1 m/S 707 mmHg 67%
05:00 +16°C° 0 mm 0 m/S 707 mmHg 63%
06:00 +17°C° 0 mm 0 m/S 708 mmHg 60%
07:00 +19°C° 0 mm 0 m/S 708 mmHg 56%
08:00 +23°C° 0 mm 1 m/S 708 mmHg 50%
09:00 +26°C° 0 mm 1 m/S 708 mmHg 43%
10:00 +28°C° 0 mm 1 m/S 708 mmHg 37%
11:00 +30°C° 0 mm 1 m/S 708 mmHg 34%
12:00 +32°C° 0 mm 1 m/S 708 mmHg 30%
13:00 +33°C° 0 mm 1 m/S 708 mmHg 27%
14:00 +34°C° 0 mm 1 m/S 708 mmHg 26%
15:00 +34°C° 0 mm 1 m/S 707 mmHg 25%
16:00 +34°C° 0 mm 1 m/S 707 mmHg 24%
17:00 +32°C° 0 mm 1 m/S 707 mmHg 32%
18:00 +29°C° 0 mm 1 m/S 707 mmHg 39%
19:00 +26°C° 0 mm 1 m/S 706 mmHg 47%
20:00 +25°C° 0 mm 1 m/S 707 mmHg 49%
21:00 +24°C° 0 mm 1 m/S 707 mmHg 51%
22:00 +23°C° 0 mm 1 m/S 707 mmHg 52%
23:00 +22°C° 0 mm 1 m/S 707 mmHg 53%

17 August, Montag

Zeit Temperatur Niederschläge Wind Luftdruck Luftfeuchtigkeit
00:00 +22°C° 0 mm 1 m/S 707 mmHg 54%
01:00 +21°C° 0 mm 1 m/S 708 mmHg 55%
02:00 +21°C° 0 mm 1 m/S 708 mmHg 57%
03:00 +20°C° 0 mm 1 m/S 708 mmHg 58%
04:00 +19°C° 0 mm 1 m/S 708 mmHg 60%
05:00 +21°C° 0 mm 1 m/S 708 mmHg 58%
06:00 +22°C° 0 mm 1 m/S 708 mmHg 55%
07:00 +22°C° 0 mm 0 m/S 709 mmHg 53%
08:00 +24°C° 0 mm 0 m/S 709 mmHg 46%
09:00 +27°C° 0 mm 0 m/S 709 mmHg 39%
10:00 +30°C° 0 mm 0 m/S 709 mmHg 32%
11:00 +34°C° 0 mm 1 m/S 709 mmHg 28%
12:00 +35°C° 0 mm 1 m/S 709 mmHg 25%
13:00 +37°C° 0 mm 1 m/S 709 mmHg 22%
14:00 +36°C° 0 mm 1 m/S 708 mmHg 23%
15:00 +36°C° 0 mm 1 m/S 708 mmHg 24%
16:00 +35°C° 0 mm 1 m/S 707 mmHg 26%
17:00 +33°C° 0 mm 1 m/S 707 mmHg 31%
18:00 +30°C° 0 mm 1 m/S 707 mmHg 37%
19:00 +28°C° 0 mm 1 m/S 707 mmHg 42%
20:00 +27°C° 0 mm 1 m/S 707 mmHg 43%
21:00 +25°C° 0 mm 1 m/S 707 mmHg 43%
22:00 +24°C° 0 mm 1 m/S 707 mmHg 43%
23:00 +23°C° 0 mm 1 m/S 707 mmHg 45%

18 August, Dienstag

Zeit Temperatur Niederschläge Wind Luftdruck Luftfeuchtigkeit
00:00 +23°C° 0 mm 1 m/S 707 mmHg 47%
01:00 +22°C° 0 mm 1 m/S 707 mmHg 49%
02:00 +21°C° 0 mm 1 m/S 707 mmHg 52%
03:00 +20°C° 0 mm 1 m/S 707 mmHg 56%
04:00 +19°C° 0 mm 1 m/S 707 mmHg 59%
05:00 +20°C° 0 mm 1 m/S 707 mmHg 56%
06:00 +20°C° 0 mm 0 m/S 707 mmHg 54%
07:00 +21°C° 0 mm 0 m/S 707 mmHg 52%
08:00 +24°C° 0 mm 0 m/S 707 mmHg 46%
09:00 +26°C° 0 mm 0 m/S 707 mmHg 39%
10:00 +29°C° 0 mm 0 m/S 708 mmHg 33%
11:00 +30°C° 0 mm 0 m/S 707 mmHg 29%
12:00 +34°C° 0 mm 1 m/S 707 mmHg 25%
13:00 +35°C° 0 mm 1 m/S 707 mmHg 21%
14:00 +35°C° 0 mm 1 m/S 707 mmHg 20%
15:00 +35°C° 0 mm 1 m/S 706 mmHg 19%
16:00 +35°C° 0 mm 1 m/S 706 mmHg 18%
17:00 +32°C° 0 mm 1 m/S 705 mmHg 24%
18:00 +29°C° 0 mm 1 m/S 705 mmHg 30%
19:00 +26°C° 0 mm 1 m/S 704 mmHg 36%
20:00 +25°C° 0 mm 1 m/S 704 mmHg 37%
21:00 +24°C° 0 mm 1 m/S 704 mmHg 39%
22:00 +22°C° 0 mm 1 m/S 704 mmHg 40%
23:00 +22°C° 0 mm 1 m/S 704 mmHg 42%
Mehr zeigen